To NAV CANADA Home Page Login to a new session Search on AWWS site Feedback and Comments Disclaimer Vers la page française équivalente Tips FAQ What's new on the site To the Forecasts and Observations / NOTAM section To "File a Flight Plan" website Publications and other links Update of the User's profile FIC Telephone Numbers My Weather Data Folder Route Weather Data Regional Weather Data Local Weather Data To the Forecasts and Observations / NOTAM section
Request Generated 03/02/2015 at 16:28:57 UTC . Weather information available at that time is displayed.

METAR/TAF

FLIN FLON/MB    

METAR CYFO 021600Z 17006KT 15SM SCT100 OVC250 M14/M18 A2972 RMK
AC4CC4 SLP095=
METAR CYFO 021500Z 17008KT 15SM BKN100 OVC250 M17/M20 A2975 RMK
AC5CI3 SLP107=
METAR CYFO 021400Z 17007KT 15SM OVC100 M17/M20 A2978 RMK AC8 SLP116=

CYFO - No TAF is issued for this station

Your time UTC time
Weather data provided by Environment Canada and NAV CANADA